Вернуться в каталог

FENGYUN 1C DEB

АктивенPO
NORAD 35088·DEBRIS·🇨🇳 China

Запущен May 10, 1999 с Taiyuan Satellite Launch Center

Loading…

Ближайшие Пролёты (ближайшие 24 часа)

TLE

СвежийSource: Space-Track

Эпоха: Sep 13, 2026, 09:51 UTC

1 35088U 99025DJQ 26256.41105284  .00005494  00000-0  19656-2 0  9996
2 35088  94.6208 305.2746 0251878  65.2671 297.4504 14.17958046626853

Отслеживайте FENGYUN 1C DEB в реальном времени с AllMySat

Download on the App Store